�������l�o���
Date,Time,MP-1(��Sv/h),MP-2(��Sv/h),MP-3(��Sv/h),MP-4(��Sv/h),MP-5(��Sv/h),MP-6(��Sv/h),MP-7(��Sv/h),MP-8(��Sv/h),����,����(m/s),���J
2016/12/13,00:00,1.107,1.853,1.214,2.110,1.451,0.571,1.044,0.968,��쐼,3.9,��
2016/12/13,00:10,1.103,1.855,1.211,2.108,1.452,0.574,1.042,0.966,��쐼,4.4,��
2016/12/13,00:20,1.106,1.856,1.215,2.109,1.453,0.573,1.043,0.967,��쐼,4.3,��
2016/12/13,00:30,1.105,1.852,1.215,2.110,1.452,0.573,1.044,0.966,��쐼,3.7,��
2016/12/13,00:40,1.105,1.853,1.214,2.111,1.451,0.571,1.043,0.967,��쐼,3.2,��
2016/12/13,00:50,1.103,1.855,1.213,2.111,1.451,0.571,1.043,0.966,��쐼,2.2,��
2016/12/13,01:00,1.106,1.855,1.214,2.108,1.450,0.574,1.045,0.966,��쐼,2.3,��
2016/12/13,01:10,1.106,1.856,1.215,2.112,1.453,0.573,1.044,0.967,��쐼,3.4,��
2016/12/13,01:20,1.106,1.855,1.215,2.109,1.454,0.571,1.043,0.967,��쐼,3.5,��
2016/12/13,01:30,1.106,1.853,1.213,2.113,1.452,0.574,1.044,0.968,��쐼,3.1,��
2016/12/13,01:40,1.106,1.856,1.214,2.109,1.452,0.572,1.043,0.968,��쐼,3.1,��
2016/12/13,01:50,1.108,1.852,1.215,2.107,1.452,0.572,1.046,0.966,��,2.3,��
2016/12/13,02:00,1.108,1.853,1.215,2.112,1.449,0.573,1.043,0.966,��,2.0,��
2016/12/13,02:10,1.105,1.854,1.214,2.112,1.450,0.573,1.044,0.966,��,2.0,��
2016/12/13,02:20,1.104,1.855,1.215,2.110,1.451,0.574,1.043,0.969,�쐼,0.9,��
2016/12/13,02:30,1.107,1.853,1.213,2.113,1.452,0.573,1.045,0.967,��,1.4,��
2016/12/13,02:40,1.105,1.854,1.215,2.109,1.451,0.574,1.044,0.968,-,CALM,��
2016/12/13,02:50,1.106,1.855,1.214,2.110,1.452,0.573,1.043,0.968,��쐼,1.1,��
2016/12/13,03:00,1.107,1.852,1.216,2.112,1.450,0.574,1.043,0.967,��쐼,2.6,��
2016/12/13,03:10,1.106,1.854,1.217,2.110,1.450,0.573,1.044,0.968,���쐼,2.8,��
2016/12/13,03:20,1.107,1.854,1.217,2.112,1.452,0.572,1.044,0.967,���쐼,2.5,��
2016/12/13,03:30,1.107,1.855,1.215,2.111,1.452,0.573,1.045,0.967,��,2.5,��
2016/12/13,03:40,1.106,1.856,1.217,2.112,1.452,0.575,1.044,0.966,���k��,3.1,��
2016/12/13,03:50,1.107,1.855,1.217,2.111,1.452,0.573,1.045,0.968,��,3.4,��
2016/12/13,04:00,1.109,1.852,1.216,2.112,1.452,0.573,1.045,0.969,���쐼,2.9,��
2016/12/13,04:10,1.108,1.856,1.218,2.108,1.451,0.573,1.045,0.968,���쐼,3.2,��
2016/12/13,04:20,1.109,1.852,1.217,2.112,1.452,0.575,1.043,0.968,�쐼,2.9,��
2016/12/13,04:30,1.110,1.853,1.217,2.112,1.452,0.574,1.045,0.968,�쐼,2.8,��
2016/12/13,04:40,1.107,1.854,1.214,2.108,1.451,0.575,1.046,0.969,�쐼,2.9,��
2016/12/13,04:50,1.109,1.856,1.216,2.112,1.451,0.574,1.047,0.969,�쐼,2.8,��
2016/12/13,05:00,1.107,1.854,1.217,2.110,1.453,0.574,1.046,0.968,�쐼,3.7,��
2016/12/13,05:10,1.109,1.854,1.218,2.108,1.454,0.574,1.046,0.968,�쐼,4.1,��
2016/12/13,05:20,1.112,1.854,1.217,2.110,1.451,0.573,1.046,0.969,�쐼,5.3,��
2016/12/13,05:30,1.111,1.856,1.217,2.113,1.453,0.576,1.046,0.968,�쐼,6.0,��
2016/12/13,05:40,1.110,1.853,1.218,2.114,1.451,0.574,1.047,0.966,��쐼,7.2,��
2016/12/13,05:50,1.110,1.855,1.219,2.111,1.451,0.574,1.046,0.969,��쐼,7.2,��
2016/12/13,06:00,1.112,1.851,1.218,2.115,1.452,0.577,1.045,0.968,�쐼,5.8,��
2016/12/13,06:10,1.111,1.854,1.215,2.114,1.451,0.575,1.046,0.968,�쐼,5.8,��
2016/12/13,06:20,1.114,1.857,1.218,2.117,1.452,0.576,1.044,0.968,�쐼,7.5,��
2016/12/13,06:30,1.115,1.856,1.218,2.114,1.453,0.574,1.046,0.968,�쐼,8.7,��
2016/12/13,06:40,1.110,1.856,1.219,2.115,1.453,0.574,1.048,0.968,�쐼,8.9,��
2016/12/13,06:50,1.113,1.854,1.220,2.114,1.455,0.576,1.048,0.969,�쐼,7.5,��
2016/12/13,07:00,1.112,1.857,1.217,2.115,1.450,0.576,1.048,0.969,��쐼,7.3,��
2016/12/13,07:10,1.112,1.855,1.220,2.117,1.453,0.576,1.049,0.968,�쐼,7.6,��
2016/12/13,07:20,1.113,1.859,1.217,2.116,1.452,0.576,1.049,0.971,�쐼,7.6,��
2016/12/13,07:30,1.115,1.855,1.219,2.117,1.453,0.576,1.048,0.969,�쐼,7.1,��
2016/12/13,07:40,1.114,1.856,1.218,2.119,1.454,0.577,1.049,0.971,�쐼,6.2,��
2016/12/13,07:50,1.115,1.852,1.218,2.117,1.453,0.578,1.047,0.970,�쐼,5.3,��
2016/12/13,08:00,1.112,1.854,1.218,2.114,1.452,0.576,1.046,0.970,��쐼,5.4,��
2016/12/13,08:10,1.113,1.854,1.215,2.116,1.454,0.577,1.045,0.969,�쐼,6.5,��
2016/12/13,08:20,1.112,1.851,1.218,2.119,1.452,0.577,1.044,0.970,�쐼,4.1,��
2016/12/13,08:30,1.114,1.857,1.218,2.116,1.451,0.576,1.047,0.971,�쐼,1.2,��
2016/12/13,08:40,1.113,1.857,1.220,2.116,1.452,0.577,1.047,0.970,�k,0.6,��
2016/12/13,08:50,1.113,1.857,1.218,2.113,1.453,0.577,1.045,0.971,�쓌,0.9,��
2016/12/13,09:00,1.115,1.855,1.216,2.117,1.451,0.577,1.046,0.970,�쓌,0.9,��
2016/12/13,09:10,1.113,1.855,1.219,2.115,1.452,0.577,1.047,0.971,�k��,1.1,��
2016/12/13,09:20,1.115,1.858,1.219,2.119,1.453,0.578,1.048,0.970,��,3.4,��
2016/12/13,09:30,1.115,1.856,1.219,2.118,1.451,0.579,1.048,0.969,��,4.6,��
2016/12/13,09:40,1.112,1.856,1.217,2.117,1.451,0.578,1.048,0.970,�k��,2.9,��
2016/12/13,09:50,1.112,1.861,1.218,2.116,1.455,0.578,1.048,0.970,�k�k��,2.8,��
2016/12/13,10:00,1.112,1.858,1.219,2.114,1.453,0.578,1.048,0.972,�k,2.3,��
2016/12/13,10:10,1.114,1.852,1.218,2.118,1.451,0.578,1.046,0.970,�k�k��,1.9,��
2016/12/13,10:20,1.113,1.854,1.220,2.115,1.452,0.577,1.047,0.970,�k�k��,2.3,��
2016/12/13,10:30,1.114,1.859,1.218,2.119,1.456,0.579,1.043,0.972,-,CALM,��
2016/12/13,10:40,1.115,1.861,1.222,2.116,1.456,0.579,-,0.970,-,CALM,��
2016/12/13,10:50,1.117,1.855,1.222,2.117,1.458,0.578,-,0.972,�쓌,2.0,��
2016/12/13,11:00,1.117,1.856,1.221,2.121,1.456,0.578,1.044,0.974,��,0.6,��
2016/12/13,11:10,1.119,1.862,1.222,2.120,1.456,0.578,1.044,0.971,-,CALM,��
2016/12/13,11:20,1.121,1.861,1.222,2.120,1.457,0.578,1.045,0.972,���k��,3.1,��
2016/12/13,11:30,1.122,1.861,1.223,2.121,1.457,0.579,1.045,0.973,���k��,4.2,��
2016/12/13,11:40,1.122,1.858,1.221,2.120,1.457,0.578,1.045,0.970,��,3.4,��
2016/12/13,11:50,1.122,1.863,1.222,2.122,1.459,0.580,1.046,0.973,�쐼,1.9,��
2016/12/13,12:00,1.123,1.860,1.221,2.122,1.456,0.579,-,0.973,�쓌,3.4,��
2016/12/13,12:10,1.122,1.860,1.222,2.122,1.455,0.579,1.044,0.973,�쓌,3.5,��
2016/12/13,12:20,1.120,1.857,1.222,2.119,1.454,0.579,1.045,0.973,��쓌,3.1,��
2016/12/13,12:30,1.120,1.861,1.221,2.121,1.453,0.578,1.046,0.970,�쓌,1.9,��
2016/12/13,12:40,1.118,1.859,1.223,2.121,1.454,0.579,1.048,0.973,��,2.6,��
2016/12/13,12:50,1.119,1.856,1.224,2.125,1.454,0.579,1.047,0.968,��쓌,2.2,��
2016/12/13,13:00,1.115,1.863,1.224,2.124,1.454,0.578,1.047,0.972,��,1.2,��
2016/12/13,13:10,1.123,1.860,1.222,2.122,1.456,0.582,1.046,0.973,��쐼,0.6,��
2016/12/13,13:20,1.121,1.837,1.224,2.122,1.455,0.581,1.049,0.972,-,CALM,��
2016/12/13,13:30,1.121,1.850,1.221,2.124,1.453,0.578,1.047,0.973,��,0.8,��
2016/12/13,13:40,1.121,1.860,1.224,2.122,1.456,0.579,1.048,0.972,-,CALM,��
2016/12/13,13:50,1.121,1.864,1.222,2.121,1.452,0.580,1.047,0.970,�쓌,1.4,��
2016/12/13,14:00,1.121,1.864,1.223,2.122,1.457,0.580,1.049,0.971,��쓌,2.6,��
2016/12/13,14:10,1.123,1.864,1.221,2.123,1.454,0.579,1.046,0.973,��쓌,3.5,��
2016/12/13,14:20,1.120,1.866,1.223,2.122,1.455,0.579,1.050,0.972,��쓌,3.4,��
2016/12/13,14:30,1.117,1.865,1.222,2.121,1.457,0.580,1.048,0.974,��쓌,4.1,��
2016/12/13,14:40,-,1.863,1.222,2.122,1.456,0.580,1.047,0.971,��,4.3,��
2016/12/13,14:50,1.120,1.863,1.222,2.122,1.456,0.579,1.049,0.971,��,4.4,��
2016/12/13,15:00,1.120,1.862,1.225,2.124,1.457,0.581,1.049,0.972,��,3.6,��
2016/12/13,15:10,1.119,1.862,1.226,2.120,1.457,0.579,1.049,0.973,��,3.2,��
2016/12/13,15:20,1.114,1.860,1.223,2.122,1.459,0.581,1.049,0.971,��쐼,3.9,��
2016/12/13,15:30,1.120,1.862,1.223,2.124,1.461,0.578,1.049,0.972,��쐼,3.3,��
2016/12/13,15:40,1.122,1.863,1.223,2.120,1.460,0.578,1.048,0.972,�쐼,2.9,��
2016/12/13,15:50,1.120,1.860,1.221,2.120,1.460,0.580,1.047,0.971,��쐼,3.0,��
2016/12/13,16:00,-,1.863,1.222,2.122,1.459,0.581,1.050,0.973,�쐼,2.6,��
2016/12/13,16:10,1.120,1.864,1.221,2.122,1.462,0.580,1.049,0.972,���쐼,1.9,��
2016/12/13,16:20,1.123,1.861,1.220,2.121,1.461,0.579,1.050,0.971,���쐼,1.7,��
2016/12/13,16:30,1.122,1.861,1.220,2.119,1.458,0.580,1.049,0.970,��,2.3,��
2016/12/13,16:40,1.122,1.863,1.222,2.119,1.459,0.579,1.051,0.973,��,2.8,��
2016/12/13,16:50,1.122,1.863,1.221,2.123,1.462,0.580,1.047,0.970,���쐼,3.5,��
2016/12/13,17:00,1.123,1.862,1.222,2.121,1.457,0.578,1.049,0.971,���쐼,4.0,��
2016/12/13,17:10,1.121,1.861,1.221,2.120,1.461,0.578,1.051,0.969,���쐼,3.8,��
2016/12/13,17:20,1.123,1.863,1.222,2.119,1.459,0.581,1.049,0.971,���쐼,3.9,��
2016/12/13,17:30,1.125,1.861,1.221,2.122,1.457,0.579,1.048,0.971,��,4.0,��
2016/12/13,17:40,1.121,1.859,1.223,2.121,1.461,0.579,1.051,0.971,��,4.5,��
2016/12/13,17:50,1.124,1.862,1.222,2.122,1.459,0.579,1.051,0.972,��,4.5,��
2016/12/13,18:00,1.120,1.863,1.222,2.120,1.462,0.578,1.051,0.972,���k��,3.9,��
2016/12/13,18:10,1.122,1.862,1.221,2.122,1.457,0.579,1.049,0.973,�k��,4.2,��
2016/12/13,18:20,1.121,1.860,1.221,2.121,1.460,0.578,1.050,0.973,�k��,5.0,��
2016/12/13,18:30,1.121,1.863,1.223,2.121,1.460,0.579,1.048,0.971,�k�k��,5.4,��
2016/12/13,18:40,1.118,1.865,1.222,2.123,1.460,0.577,1.049,0.972,�k,6.4,��
2016/12/13,18:50,1.120,1.863,1.220,2.123,1.458,0.578,1.048,0.971,�k,7.4,��
2016/12/13,19:00,1.120,1.861,1.220,2.121,1.456,0.576,1.050,0.972,�k,6.7,��
2016/12/13,19:10,1.119,1.862,1.218,2.122,1.458,0.580,1.049,0.972,�k,6.7,��
2016/12/13,19:20,1.120,1.859,1.221,2.122,1.461,0.579,1.050,0.972,�k,6.7,��
2016/12/13,19:30,1.122,1.863,1.220,2.122,1.462,0.579,1.049,0.970,�k,6.2,��
2016/12/13,19:40,1.122,1.863,1.220,2.124,1.461,0.577,1.049,0.973,�k,6.2,�L
2016/12/13,19:50,1.121,1.862,1.221,2.123,1.459,0.579,1.048,0.974,�k,6.2,��
2016/12/13,20:00,1.119,1.860,1.223,2.123,1.458,0.578,1.048,0.971,�k,6.7,��
2016/12/13,20:10,1.121,1.860,1.221,2.122,1.461,0.579,1.048,0.971,�k�k��,5.5,��
2016/12/13,20:20,1.121,1.864,1.222,2.124,1.459,0.579,1.050,0.971,�k�k��,5.7,��
2016/12/13,20:30,1.120,1.862,1.223,2.121,1.458,0.578,1.049,0.970,�k�k��,5.4,�L
2016/12/13,20:40,1.121,1.859,1.219,2.124,1.458,0.577,1.049,0.970,�k�k��,5.6,��
2016/12/13,20:50,1.117,1.862,1.218,2.120,1.459,0.579,1.051,0.972,�k�k��,5.9,��
2016/12/13,21:00,1.119,1.858,1.221,2.121,1.458,0.579,1.052,0.970,�k�k��,5.8,��
2016/12/13,21:10,1.120,1.860,1.220,2.121,1.454,0.579,1.050,0.971,�k�k��,6.7,��
2016/12/13,21:20,1.118,1.860,1.220,2.119,1.456,0.579,1.051,0.970,�k�k��,6.9,��
2016/12/13,21:30,1.118,1.857,1.221,2.120,1.456,0.579,1.049,0.969,�k�k��,6.5,�L
2016/12/13,21:40,1.117,1.859,1.219,2.119,1.452,0.579,1.049,0.972,�k�k��,6.8,�L
2016/12/13,21:50,1.116,1.853,1.218,2.117,1.452,0.577,1.046,0.969,�k�k��,7.3,�L
2016/12/13,22:00,1.115,1.846,1.216,2.112,1.446,0.580,1.046,0.968,�k�k��,5.9,�L
2016/12/13,22:10,1.113,1.837,1.210,2.108,1.441,0.577,1.043,0.968,�k�k��,6.5,�L
2016/12/13,22:20,1.108,1.831,1.206,2.100,1.433,0.579,1.041,0.967,�k�k��,6.6,�L
2016/12/13,22:30,1.105,1.824,1.203,2.095,1.429,0.575,1.040,0.966,�k�k��,7.5,�L
2016/12/13,22:40,1.104,1.819,1.202,2.086,1.423,0.573,1.038,0.964,�k�k��,7.2,�L
2016/12/13,22:50,1.096,1.809,1.194,2.083,1.417,0.572,1.035,0.962,�k�k��,7.9,�L
2016/12/13,23:00,1.093,1.802,1.193,2.071,1.409,0.572,1.034,0.961,�k�k��,7.0,�L
2016/12/13,23:10,1.091,1.796,1.189,2.063,1.404,0.572,1.032,0.958,�k�k��,7.6,�L
2016/12/13,23:20,1.088,1.789,1.188,2.056,1.401,0.571,1.031,0.957,�k�k��,7.3,�L
2016/12/13,23:30,1.086,1.785,1.184,2.049,1.397,0.570,1.031,0.957,�k�k��,7.9,�L
2016/12/13,23:40,1.081,1.776,1.178,2.043,1.393,0.570,1.029,0.955,�k�k��,6.0,�L
2016/12/13,23:50,1.078,1.771,1.173,2.035,1.387,0.568,1.027,0.955,�k�k��,6.9,�L
